Regional Weather Roundup
Issued by NWS

Home | Current Version | Previous Version | Graphics & Text | Print | Product List | Glossary Off
Versions: 1 2 3 4 5 6 7 8 9 10 11 12 13 14 15 16 17 18 19 20 21 22 23 24 25 26 27 28 29 30 31 32 33 34 35 36 37 38 39 40 41 42 43 44 45 46 47 48 49 50

520
ASUS43 KMPX 040610
RWRMN
WEATHER ROUNDUP FOR MINNESOTA
NATIONAL WEATHER SERVICE TWIN CITIES/CHANHASSEN MN
1200 AM CST SUN DEC 04 2016


NOTE: "FAIR" INDICATES FEW OR NO CLOUDS BELOW 12,000 FEET WITH NO
SIGNIFICANT WEATHER AND/OR OBSTRUCTIONS TO VISIBILITY. N/A MEANS
CURRENT SKY AND/OR WEATHER CONDITIONS ARE NOT AVAILABLE.

MNZ060>063-068>070-040700-
   Twin Cities Metro

CITY           SKY/WX    TMP DP  RH WIND       PRES   REMARKS
TWIN CITIES    LGT SNOW  31  26  82 SE8       30.12F WCI  23
6HR MIN TEMP:  31; 6HR MAX TEMP:  32; 6HR PCP: TRACE;

ST PAUL        LGT SNOW  31  28  89 SE10      30.14F FOG     WCI  22
CRYSTAL        LGT SNOW  31  26  82 SE8       30.10F WCI  23
BLAINE         FLURRIES  34  28  80 SE9       30.11S WCI  26
LAKEVILLE      LGT SNOW  28  28 100 SE7       30.11F WCI  21
EDEN PRAIRIE   LGT SNOW  32  28  85 SE8       30.10F FOG     WCI  25
6HR MIN TEMP:  32; 6HR MAX TEMP:  33; 6HR PCP: TRACE;

SOUTH ST PAUL  LGT SNOW  32  27  81 SE6       30.13S WCI  26
LAKE ELMO      LGT SNOW  32  28  86 SE5       30.13F WCI  27
$$
MNZ001>005-007-008-013>017-022>024-027-028-040700-
   Northwest Minnesota

CITY           SKY/WX    TMP DP  RH WIND       PRES   REMARKS
BEMIDJI        LGT SNOW  27  25  91 SE10      29.97F WCI  17
HALLOCK        CLOUDY    30  28  93 SE15      29.89S WCI  19
ROSEAU         LGT SNOW  28  23  80 SE10      29.94F WCI  19
WARROAD        LGT SNOW  27  21  80 SE10      29.96F WCI  17
THIEF RVR FALL CLOUDY    30  27  88 SE13      29.93F WCI  20
CROOKSTON      CLOUDY    34  30  86 S15       29.91F WCI  24
FOSSTON        CLOUDY    28  27  93 SE14      29.93F WCI  17
DETROIT LAKES  CLOUDY    32  32 100 S12       29.95F FOG     WCI  23
MOORHEAD       CLOUDY    34  30  86 S15G24    29.92F FOG     WCI  24
PARK RAPIDS    LGT SNOW  29  24  82 SE13      29.97F WCI  19
$$
MNZ006-009>011-018-025>026-040700-
   North Central Minnesota

CITY           SKY/WX    TMP DP  RH WIND       PRES   REMARKS
BAUDETTE       LGT SNOW  24  20  84 SE12      29.98F FOG     WCI  13
FLAG ISLAND    CLOUDY    27  23  86 SE15      29.98F WCI  15
INTL FALLS     PTCLDY    22  18  85 SE8       30.04F WCI  12
6HR MIN TEMP:  20; 6HR MAX TEMP:  27;

WASKISH        CLOUDY    27  25  93 SE8       29.98F WCI  18
BIG FORK       CLOUDY    28  21  74 S7        30.02F WCI  21
LONGVILLE      LGT SNOW  27  27 100 SE7       30.02F WCI  19
GRAND RAPIDS   FLURRIES  27  22  81 SE9       30.05F WCI  18
CRANE LAKE     PTCLDY    25  21  86 CALM      30.09F
ORR            CLOUDY    25  18  74 CALM      30.03F
COOK           CLOUDY    25  19  80 CALM      30.07S
$$
MNZ012-019>021-037-040700-
   Northeast Minnesota

CITY           SKY/WX    TMP DP  RH WIND       PRES   REMARKS
DULUTH         CLOUDY    28  21  75 SE9       30.09F WCI  19
6HR MIN TEMP:  27; 6HR MAX TEMP:  29;

ELY            PTCLDY    25  21  86 SE3       30.08F
HIBBING        CLOUDY    26  19  74 S9        30.06F WCI  17
EVELETH        CLOUDY    28  20  74 SE7       30.09F WCI  20
DULUTH HARBOR  CLOUDY    30  23  74 SE6       30.15F WCI  24
TWO HARBORS    MOCLDY    32  23  69 S3        30.10F
SILVER BAY     CLOUDY    30  23  74 S5        30.11S WCI  25
GRAND MARAIS     N/A     36  26  67 S13       30.15F
G MARAIS ARPRT CLOUDY    27  19  74 SE6       30.10S WCI  20
$$
MNZ029>031-032-039>041-046>048-054>057-064-040700-
   West Central Minnesota

CITY           SKY/WX    TMP DP  RH WIND       PRES   REMARKS
FERGUS FALLS   CLOUDY    34  34 100 S16       29.99F FOG     WCI  23
MORRIS         MOCLDY    34  32  93 S15       29.96F FOG     WCI  24
ALEXANDRIA     LGT SNOW  33  32  96 S14       29.99F FOG     WCI  23
ELBOW LAKE     CLOUDY    32  32 100 S15       29.97F FOG     WCI  22
WADENA         LGT SNOW  28  27  93 SE8       29.98F WCI  20
GLENWOOD       LGT SNOW  32  32 100 S14       29.99F WCI  22
APPLETON       CLOUDY    36  32  87 S9        29.98F
BENSON         LGT SNOW  34  30  86 S10       29.99F WCI  26
ORTONVILLE     CLOUDY    34  30  86 S9        29.95F FOG     WCI  26
MADISON        CLOUDY    37  36  93 S12       29.97F FOG
WILLMAR        LGT SNOW  34  34 100 S12       30.03F WCI  25
$$
MNZ033>034-036-042>043-049>051-058-059-040700-
   Central Minnesota

CITY           SKY/WX    TMP DP  RH WIND       PRES   REMARKS
ST CLOUD       LGT SNOW  30  28  92 SE9       30.06F FOG     WCI  22
6HR MIN TEMP:  29; 6HR MAX TEMP:  30; 6HR PCP:  0.01;

PAYNESVILLE    LGT SNOW  32  33 100 SE9       30.03F WCI  25
AITKIN         LGT SNOW  30  23  74 SE10      30.04F WCI  21
PINE RIVER     LGT SNOW  27  27 100 SE9       30.05F WCI  17
BRAINERD       LGT SNOW  28  25  88 SE9       30.04F FOG     WCI  19
STAPLES        LGT SNOW  27  27 100 SE8       30.00F WCI  18
LONG PRAIRIE   LGT SNOW  30  30 100 E12       30.01F WCI  21
LITTLE FALLS   LGT SNOW  30  27  86 SE10      30.04F WCI  21
LITCHFIELD     LGT SNOW  34  34 100 SE6       30.05F WCI  29
BUFFALO        LGT SNOW  32  29  91 SE8       30.09F WCI  24
MAPLE LAKE     LGT SNOW  32  32  98 SE8       30.08F WCI  25
HUTCHINSON     LGT SNOW  34  34 100 SE9       30.07F WCI  26
$$
MNZ037-044-045-052-053-040700-
   East Central Minnesota

CITY           SKY/WX    TMP DP  RH WIND       PRES   REMARKS
PRINCETON      LGT SNOW  30  27  86 SE7       30.09F WCI  23
MORA           LGT SNOW  28  27  93 SE5       30.11F WCI  23
CAMBRIDGE      LGT SNOW  32  23  69 SE7       30.09F WCI  26
RUSH CITY      CLOUDY    30  25  80 SE6       30.11F WCI  24
MOOSE LAKE     CLOUDY    30  23  74 S6        30.08F WCI  24
HINCKLEY       LGT SNOW  30  27  86 SE3       30.11F
CLOQUET        CLOUDY    28  19  69 SE5       30.09F WCI  23
MCGREGOR       CLOUDY    30  23  74 SE9       30.07F WCI  22
$$
MNZ071>073-080-081-089-090-097-098-040700-
   Southwest Minnesota

CITY           SKY/WX    TMP DP  RH WIND       PRES   REMARKS
MONTEVIDEO     CLOUDY    34  34 100 S10       30.01F WCI  26
GRANITE FALLS  CLOUDY    36  34  92 SE14      30.02F
CANBY          CLOUDY    36  33  88 S5G18     29.99S
MARSHALL       CLOUDY    35  32  88 S20       29.98F WCI  24
REDWOOD FALLS  LGT SNOW  34  31  88 S13       30.03F FOG     WCI  25
OLIVIA         LGT SNOW  34  32  93 S14       30.02F WCI  24
PIPESTONE      CLOUDY    34  34 100 S18       29.97F FOG     WCI  23
WINDOM         MIX PCPN  34  34 100 S15       30.02F WCI  24
WORTHINGTON    MIX PCPN  32  32 100 S16       30.02F WCI  21
JACKSON        LGT SNOW  32  32 100 S9        30.03F WCI  24
TRACY          CLOUDY    35  33  92 S14G20    30.00F WCI  26
SLAYTON        CLOUDY    32  32  98 S13G20    30.01F WCI  23
$$
MNZ065>067-074>077-082>085-091>093-040700-
   South Central Minnesota

CITY           SKY/WX    TMP DP  RH WIND       PRES   REMARKS
MANKATO        LGT SNOW  33  32  96 S9        30.09F FOG     WCI  25
NEW ULM        LGT SNOW  34  34 100 S9        30.06F WCI  26
ST JAMES       CLOUDY    34  34 100 SE12      30.06F WCI  25
FAIRMONT       CLOUDY    33  32  96 S13       30.07F WCI  24
GLENCOE        LGT SNOW  33  33 100 SE6       30.07F WCI  28
FARIBAULT      MIX PCPN  34  30  86 SE8       30.10F WCI  27
OWATONNA       LGT SNOW  34  30  86 SE8       30.10F WCI  27
WASECA         MIX PCPN  32  32 100 SE8       30.10F WCI  25
ALBERT LEA     LGT SNOW  36  36 100 S9        30.10F
$$
MNZ078>079-086>088-094>096-040700-
   Southeast Minnesota

CITY           SKY/WX    TMP DP  RH WIND       PRES   REMARKS
ROCHESTER      LGT SNOW  31  29  92 SE10      30.12F FOG     WCI  22
6HR MIN TEMP:  29; 6HR MAX TEMP:  31; 6HR PCP:  0.02;

RED WING       FLURRIES  34  25  69 SE7       30.14F WCI  28
STANTON        FLURRIES  32  28  84 SE7       30.11F WCI  26
DODGE CENTER   LGT SNOW  30  28  93 SE9       30.11F WCI  22
WINONA         CLOUDY    34  30  86 SE6       30.18F WCI  29
AUSTIN         LGT SNOW  34  30  86 S7        30.11F WCI  28
PRESTON        LGT SNOW  30  28  93 SE6       30.14F WCI  24
$$
ABBREVIATIONS USED IN REMARKS
   TC - TEMPERATURES IN CELSIUS
  WCI - WIND CHILL INDEX
   HX - HEAT INDEX
  VSB - VISIBILITY
$$




USA.gov is the U.S. government's official web portal to all federal, state and local government web resources and services.